Location: Gro� Glienicke
(52.4675°N, 13.1079°E)
Time: 19:15:18
(UTC+00:00)

Cosmos 405 - Pass Details

Date: 06 July 2020
Orbit: 450 x 465 km, 81.3° (Epoch: 12 August)

Event Time Altitude Azimuth Distance (km) Brightness Sun altitude
Rises 22:48:44 0° 349° (N) 2,513 8.6 -14.8°
Reaches altitude 10° 22:50:51 10° 352° (N) 1,630 7.2 -14.8°
Maximum altitude 22:54:23 64° 75° (ENE) 519 3.2 -14.9°
Enters shadow 22:56:06 28° 149° (SSE) 909 3.9 -14.9°
